TITAN 3C TRANSTAGE DEB, 1835

Orbit data source: Space-Track

TITAN 3C TRANSTAGE DEB, 1835 is space debris in LEO originally from a launch on Fri, 15 Oct 1965 UTC launched from the Air Force Eastern Test Range (AFETR). Debris objects in space refer to the collection of defunct objects orbiting the Earth. Examples of debris include non-operational satellites, rocket bodies, and fragments generated from explosions, collisions, or faulty payload assembly.

Loading next visibility...
Identifier
1835, 1965-082EA
Orbit
LEO
Last TLE update
18 hours ago
Origin
Manufacturer
Unknown
Mission
Spacecraft
Bus & Motor
Unknown
Mass
Unknown
Launch date (UTC)
1965-10-15 (60 years ago)
Launch vehicle
Unknown
Launch site
Air Force Eastern Test Range (AFETR)
Object type
Payload
Rocket body
Debris
Shape & HBR
Unknown
Radar Cross Section
Small (<0.1 m²)

Expand to show TLE details & history

TLE from 18 hours ago
0 TITAN 3C TRANSTAGE DEB
1 01835U 65082EA  25182.42476452  .00003314  00000-0  22197-3 0  9995
2 01835  32.3948  82.1862 0011858  99.0457 261.1548 15.05474471194405
Epoch: 2025-07-01T10:11Z
TLE epoch observation values (Epoch: 2025-07-01T10:11:39.654Z)
Latitude
-0°
Longitude
9.55056°
Altitude
549.972 km
Speed
7.589 km/s
True Right ascension
05h 28m 44s
True Declination
0° 00' 00"
Sunlit
Object was in daylight at epoch
Visualization orbit readout
Latitude
30.73094°
Longitude
73.58302°
Altitude
542.83 km
Speed
7.6 km/s
Apparent Right ascension
07h 06m 03s
Apparent Declination
-4° 07' 35"
Sunlit
Object is in daylight
Visualization observer readout
Local Sidereal Time
15:42:18
Azimuth
294.206° NW
Elevation
-31.888°
Doppler factor
1
Orbital elements
Apogee altitude
561.895 km
Perigee altitude
545.456 km
Semi-major axis
6,931.812 km
Eccentricity
0.00119
Inclination
32.3948°
RAAN
82.1862°
Arg. of periapsis
99.0457°
True anomaly
Unknown
Mean anomaly
261.1548°
Eccentric anomaly
Unknown
Mean motion
3.76074 °/min
Orbital period
95.73 mins
BSTAR
0.00022197
Loading maneuver chart data...
Loading SW <> Apogee altitude chart data...

TITAN 3C TRANSTAGE DEB Visibility forecast

Observer location: undefined°, undefined°

Span
Click to sort rows by Start time (UTC) header in descending order
Start Az.
Max El. time (UTC)
Max El. Az.
Max El.
End time (UTC)
End Az.
5 mins2025-07-02 21:28:58.544Z206.939° SW2025-07-02 21:30:58.544Z172.058° S19.845°2025-07-02 21:33:58.544Z120.515° SE
5 mins2025-07-02 23:09:58.544Z223.774° SW2025-07-02 23:11:58.544Z179.094° S25.255°2025-07-02 23:14:58.544Z125.111° SE
4 mins2025-07-03 00:50:58.544Z224.676° SW2025-07-03 00:52:58.544Z186.936° SSW18.268°2025-07-03 00:54:58.544Z154.612° SSE
|